User: anonymous   Login
Location: Platte
(43.3870°N, 98.8440°W)
Time: 10:19:37
(UTC-05:00)
Language:

Landsat 7 - Orbit

View from above orbital plane
View from above orbital plane
View from above satellite
View from above satellite

Ground track
Ground track

The orbit data is extracted from the following two-line orbital elements,

1 25682U 99020A   15185.16669544  .00000200  00000-0  54490-4 0  9992
2 25682 098.2166 254.8651 0001237 094.4059 265.7315 14.57102710862612
Epoch (UTC): 04 July 2015 04:00:02
Eccentricity: 0.0001237
inclination: 98.2166°
perigee height: 701 km
apogee height: 703 km
right ascension of ascending node: 254.8651°
argument of perigee: 94.4059°
revolutions per day: 14.57102710
mean anomaly at epoch: 265.7315°
orbit number at epoch: 86261

The dashed part of the orbit path shows where the satellite is in the earth's shadow,  

DLR